{"data":{"norad_id":64771,"epoch":"2026-09-20T14:19:30.963360Z","epoch_age_seconds":119490,"freshness":"FRESH","line1":"1 64771U 25147S   26263.59688615  .00006956  00000+0  21708-3 0  9997","line2":"2 64771  53.1593  53.1189 0000938   0.2178 359.8825 15.34359427 68588","mean_motion":15.34359427,"eccentricity":9.38e-5,"inclination_deg":53.1593,"raan_deg":53.1189,"arg_perigee_deg":0.2178,"mean_anomaly_deg":359.8825,"bstar":0.00021708,"rev_number":6858,"period_min":93.850239693545,"perigee_km":462.18215224453,"apogee_km":463.46551649706,"semimajor_km":6840.9608343708,"source":"CELESTRAK","updated_at":"2026-09-21T09:00:35.439404Z"}}